Flag for Norway Weather past 2 weeks in Longyearbyen, Svalbard, Norway

Now
-6 °F

Passing clouds.


Feels Like: -28 °F
Forecast: -16 / -6 °F
Wind: 16 mph from Southeast

Location: Svalbard Lufthavn

Current Time: Jan 31, 2015 at 12:31:36 AM

Latest Report: Jan 30, 2015 at 11:50 PM


Visibility: N/A

Pressure: 30.04 "Hg

Humidity: 54%

Dew point: -18 °F

Location of LongyearbyenLocation

Historic Weather in Longyearbyen — Graph

°F

Longyearbyen temperature yesterday

Maximum temperature yesterday: -2 °F (at 5:50 PM)
Minimum temperature yesterday: -8 °F (at 1:50 AM)
Average temperature yesterday: -5 °F

Past Weeks' High & Low Weather Summary

 TemperatureHumidityPressure
High37 °F (Jan 22, 1:50 AM)93% (Jan 18, 4:50 PM)30.12 "Hg (Jan 18, 4:50 PM)
Low-8 °F (Jan 30, 1:50 AM)41% (Jan 30, 5:50 PM)29.53 "Hg (Jan 24, 2:50 AM)
Average16 °F68%29.81 "Hg
* Reported Jan 15 10:50 PM — Jan 30 10:50 PM, Longyearbyen, Weather by CustomWeather, © 2014

Note: Actual official high and low records may vary slightly from our data, if they occured in-between our weather recording intervals... More about our weather records

Advertising

Longyearbyen weather history for previous 24 hours

 ConditionsComfort  
Time TempWeatherWind HumidityBarometerVisibility
10:50 PM
Jan 30
-4 °FPassing clouds.15 mph54%30.04 "HgN/A
9:50 PM-2 °FPassing clouds.16 mph59%30.04 "HgN/A
8:50 PM-2 °FPassing clouds.15 mph59%30.01 "HgN/A
7:50 PM-2 °FPassing clouds.16 mph45%30.01 "HgN/A
6:50 PM-2 °FPassing clouds.17 mph49%30.01 "HgN/A
5:50 PM-2 °FPassing clouds.18 mph41%30.01 "HgN/A
4:50 PM-4 °FPassing clouds.15 mph49%30.01 "HgN/A
3:50 PM-4 °FPassing clouds.18 mph54%30.01 "HgN/A
1:50 PM-4 °FPassing clouds.17 mph59%30.01 "HgN/A
12:50 PM-6 °FPassing clouds.17 mph59%30.01 "HgN/A
11:50 AM-8 °FPassing clouds.18 mph64%30.01 "HgN/A
10:50 AM-6 °FScattered clouds.23 mph70%30.01 "HgN/A
9:50 AM-8 °FScattered clouds.25 mph70%30.01 "HgN/A
8:50 AM-6 °FScattered clouds.24 mph64%29.98 "HgN/A
7:50 AM-8 °FPassing clouds.25 mph70%29.98 "HgN/A
6:50 AM-8 °FScattered clouds.23 mph64%29.98 "HgN/A
5:50 AM-8 °FPassing clouds.23 mph64%29.98 "HgN/A
4:50 AM-8 °FPassing clouds.23 mph64%29.98 "HgN/A
2:50 AM-8 °FPassing clouds.21 mph70%29.98 "HgN/A
1:50 AM-8 °FPassing clouds.21 mph70%29.95 "HgN/A
12:50 AM-6 °FPassing clouds.23 mph70%29.95 "HgN/A
Weather by CustomWeather, © 2014

See weather overviewHow to use our weather pages